Sign in

Goboko Update

Goboko is set to continue

The Goboko booking system is to continue under a new operator, a member of one of our longest-subscribed flying clubs

The new and previous operators of the site are working to ensure there will be no interruption to your booking service as the transition takes place. Of course, aircraft booking will continue to be free

Thank you for your continued commitment to Goboko

Info

Aviation weather

METAR KDAB 171853Z 02010KT 10SM FEW035 23/16 A3014 RMK AO2 SLP204 T02280156

TAF KDAB 171720Z 1718/1818 03008KT P6SM FEW035 FM172300 03005KT P6SM FEW030 FM181700 07007KT P6SM SCT035

Aviation weather from ADDS. Re-check weather before flight.

-